Date String (YYYY-MM-DD hh:mm:ss) UTC,Instrument flags,Ambient pressure (hPa),Sample flow (lpm),Bypass flow (lpm),Sample temperature (°C),Ambient temperature (°C),ASC tube jacket temperature (°C),LED temperature (°C),Box temperature (°C),Sample RH (%),Span deviation,Mass concentration (μg/m³),Mass concentration (μg/m³),Mass concentration (μg/m³)
DateTimeUTC,F1_M11,P_M11,Q1_M11,Q2_M11,T1_M11,T2_M11,T3_M11,T4_M11,T5_M11,U1_M11,ZSPAN_M11,X0_M11,X2_M11,X1_M11
2022-06-19 18:00:00,,0824.1,4.99,0.00,29.1,27.2,00.0,38.0,31.0,24.4,0000.0,0002.63,0001.55,0001.16
2022-06-19 18:01:00,,0824.1,5.00,0.00,29.1,27.4,00.0,38.0,31.0,24.4,0000.0,0002.63,0001.54,0001.16
2022-06-19 18:02:00,,0824.1,5.01,0.00,29.2,27.6,00.0,38.0,31.1,24.3,0000.0,0002.68,0001.53,0001.16
2022-06-19 18:03:00,,0824.1,5.00,0.00,29.2,27.8,00.0,38.0,31.1,24.1,0000.0,0002.69,0001.53,0001.16
2022-06-19 18:04:00,,0824.1,4.99,0.00,29.2,27.9,00.0,38.0,31.2,24.1,0000.0,0002.78,0001.57,0001.17
2022-06-19 18:05:00,,0824.1,5.00,0.00,29.2,28.1,00.0,38.0,31.2,24.2,0000.0,0002.66,0001.62,0001.18
2022-06-19 18:06:00,,0824.1,5.00,0.00,29.3,28.2,00.0,38.0,31.3,24.1,0000.0,0002.59,0001.65,0001.18
2022-06-19 18:07:00,,0824.1,5.00,0.00,29.3,28.4,00.0,38.0,31.3,23.9,0000.0,0004.22,0001.71,0001.18
2022-06-19 18:08:00,,0824.1,5.00,0.00,29.4,28.5,00.0,38.1,31.4,24.0,0000.0,0006.16,0001.84,0001.19
2022-06-19 18:09:00,,0824.1,5.01,0.00,29.4,28.3,00.0,38.1,31.4,23.9,0000.0,0006.70,0001.95,0001.19
2022-06-19 18:10:00,,0824.1,5.01,0.00,29.3,27.5,00.0,38.0,31.1,23.7,0000.0,0007.01,0002.01,0001.19
2022-06-19 18:11:00,,0824.0,5.01,0.00,29.3,27.1,00.0,38.0,31.0,23.9,0000.0,0007.14,0002.01,0001.18
2022-06-19 18:12:00,,0824.0,5.00,0.00,29.2,27.1,00.0,38.0,31.0,24.0,0000.0,0007.30,0002.01,0001.16
2022-06-19 18:13:00,,0824.0,4.99,0.00,29.2,27.2,00.0,38.0,31.0,24.0,0000.0,0007.28,0002.02,0001.15
2022-06-19 18:14:00,,0824.0,5.00,0.00,29.2,27.4,00.0,38.0,31.0,24.0,0000.0,0007.38,0002.03,0001.15
2022-06-19 18:15:00,,0824.0,5.01,0.00,29.2,27.6,00.0,38.0,31.1,24.1,0000.0,0007.33,0001.96,0001.13
2022-06-19 18:16:00,,0823.9,5.00,0.00,29.2,27.8,00.0,38.0,31.1,24.1,0000.0,0007.31,0001.94,0001.11
2022-06-19 18:17:00,,0823.9,5.00,0.00,29.2,27.9,00.0,38.0,31.2,23.9,0000.0,0007.27,0001.94,0001.11
2022-06-19 18:18:00,,0823.9,5.00,0.00,29.3,28.1,00.0,38.0,31.3,23.9,0000.0,0005.87,0001.86,0001.09
2022-06-19 18:19:00,,0823.9,5.00,0.00,29.3,28.3,00.0,38.0,31.3,24.0,0000.0,0003.87,0001.72,0001.08
2022-06-19 18:20:00,,0824.0,5.00,0.00,29.3,28.4,00.0,38.0,31.3,23.9,0000.0,0003.32,0001.60,0001.06
2022-06-19 18:21:00,,0824.0,5.01,0.00,29.3,28.0,00.0,38.0,31.2,23.9,0000.0,0003.07,0001.55,0001.05
2022-06-19 18:22:00,,0824.0,5.00,0.00,29.3,27.2,00.0,38.0,31.1,23.8,0000.0,0003.00,0001.54,0001.04
2022-06-19 18:23:00,,0824.0,4.99,0.00,29.2,27.0,00.0,37.9,31.0,24.0,0000.0,0003.19,0001.53,0001.04
2022-06-19 18:24:00,,0823.9,5.01,0.00,29.2,27.0,00.0,37.9,31.0,24.3,0000.0,0003.59,0001.56,0001.05
2022-06-19 18:25:00,,0824.0,5.00,0.00,29.1,27.2,00.0,37.9,31.0,24.5,0000.0,0003.60,0001.59,0001.06
2022-06-19 18:26:00,,0823.9,4.99,0.00,29.1,27.4,00.0,37.9,31.0,24.6,0000.0,0003.88,0001.68,0001.07
2022-06-19 18:27:00,,0823.9,5.00,0.00,29.2,27.6,00.0,37.9,31.1,24.9,0000.0,0004.05,0001.70,0001.08
2022-06-19 18:28:00,,0823.9,5.00,0.00,29.2,27.8,00.0,38.0,31.1,24.9,0000.0,0004.09,0001.71,0001.09
2022-06-19 18:29:00,,0823.9,4.99,0.00,29.2,28.0,00.0,38.0,31.2,24.8,0000.0,0004.17,0001.75,0001.10
2022-06-19 18:30:00,,0823.8,4.99,0.00,29.2,28.1,00.0,38.0,31.2,24.7,0000.0,0004.02,0001.76,0001.12
2022-06-19 18:31:00,,0823.8,5.00,0.00,29.3,28.3,00.0,38.0,31.3,24.6,0000.0,0004.03,0001.77,0001.12
2022-06-19 18:32:00,,0823.8,5.00,0.00,29.3,28.4,00.0,38.0,31.3,24.5,0000.0,0004.71,0001.81,0001.13
2022-06-19 18:33:00,,0823.8,5.00,0.00,29.3,28.3,00.0,38.0,31.3,24.4,0000.0,0004.98,0001.80,0001.13
2022-06-19 18:34:00,,0823.7,5.00,0.00,29.3,27.5,00.0,38.0,31.1,24.4,0000.0,0004.86,0001.82,0001.14
2022-06-19 18:35:00,,0823.7,4.99,0.00,29.2,27.1,00.0,37.9,31.0,24.4,0000.0,0004.31,0001.79,0001.13
2022-06-19 18:36:00,,0823.7,5.00,0.00,29.2,27.1,00.0,37.9,31.0,24.6,0000.0,0004.19,0001.74,0001.13
2022-06-19 18:37:00,,0823.7,5.00,0.00,29.2,27.2,00.0,37.9,31.0,24.6,0000.0,0003.92,0001.67,0001.13
2022-06-19 18:38:00,,0823.6,5.01,0.00,29.2,27.4,00.0,37.9,31.1,24.6,0000.0,0003.83,0001.69,0001.13
2022-06-19 18:39:00,,0823.6,5.00,0.00,29.2,27.6,00.0,38.0,31.1,24.9,0000.0,0003.77,0001.67,0001.12
2022-06-19 18:40:00,,0823.6,5.00,0.00,29.2,27.8,00.0,38.0,31.2,24.9,0000.0,0003.70,0001.64,0001.12
2022-06-19 18:41:00,,0823.6,5.00,0.00,29.2,28.0,00.0,38.0,31.2,24.7,0000.0,0003.69,0001.64,0001.11
2022-06-19 18:42:00,,0823.4,5.01,0.00,29.3,28.2,00.0,38.0,31.3,25.0,0000.0,0003.78,0001.68,0001.12
2022-06-19 18:43:00,,0823.5,4.99,0.00,29.3,28.3,00.0,38.0,31.3,25.4,0000.0,0003.25,0001.71,0001.13
2022-06-19 18:44:00,,0823.4,5.00,0.00,29.3,28.0,00.0,38.0,31.3,25.5,0000.0,0002.82,0001.69,0001.14
2022-06-19 18:45:00,,0823.4,5.00,0.00,29.3,27.3,00.0,37.9,31.1,25.6,0000.0,0002.80,0001.73,0001.15
2022-06-19 18:46:00,,0823.4,5.00,0.00,29.2,27.1,00.0,37.9,31.0,25.5,0000.0,0003.00,0001.82,0001.18
2022-06-19 18:47:00,,0823.3,5.00,0.00,29.2,27.2,00.0,37.9,31.0,25.3,0000.0,0003.24,0001.87,0001.19
2022-06-19 18:48:00,,0823.3,4.99,0.00,29.2,27.4,00.0,37.9,31.0,25.0,0000.0,0003.31,0001.90,0001.19
2022-06-19 18:49:00,,0823.4,5.01,0.00,29.2,27.5,00.0,37.9,31.1,24.9,0000.0,0003.44,0001.91,0001.18
2022-06-19 18:50:00,,0823.4,5.00,0.00,29.2,27.7,00.0,37.9,31.1,24.8,0000.0,0003.56,0001.92,0001.18
2022-06-19 18:51:00,,0823.4,5.00,0.00,29.2,27.9,00.0,38.0,31.2,24.8,0000.0,0003.64,0001.94,0001.19
2022-06-19 18:52:00,,0823.4,5.01,0.00,29.2,28.1,00.0,38.0,31.2,24.9,0000.0,0003.67,0001.95,0001.18
2022-06-19 18:53:00,,0823.3,4.99,0.00,29.3,28.2,00.0,38.0,31.3,24.7,0000.0,0003.77,0001.99,0001.19
2022-06-19 18:54:00,,0823.3,5.01,0.00,29.3,28.3,00.0,38.0,31.3,24.4,0000.0,0003.76,0001.96,0001.18
2022-06-19 18:55:00,,0823.4,5.00,0.00,29.3,27.7,00.0,38.0,31.2,24.2,0000.0,0003.67,0001.93,0001.19
2022-06-19 18:56:00,,0823.3,4.99,0.00,29.2,27.2,00.0,37.9,31.0,23.7,0000.0,0003.73,0001.94,0001.19
2022-06-19 18:57:00,,0823.3,5.01,0.00,29.2,27.1,00.0,37.9,31.0,23.1,0000.0,0003.54,0001.87,0001.18
2022-06-19 18:58:00,,0823.3,5.00,0.00,29.2,27.2,00.0,37.9,31.0,23.3,0000.0,0003.38,0001.85,0001.18
2022-06-19 18:59:00,,0823.3,4.99,0.00,29.1,27.4,00.0,37.9,31.0,23.2,0000.0,0003.27,0001.83,0001.19
